TimeEST,TemperatureF,Dew PointF,Humidity,Sea Level PressureIn,VisibilityMPH,Wind Direction,Wind SpeedMPH,Gust SpeedMPH,PrecipitationIn,Events,Conditions,WindDirDegrees,DateUTC
12:53 AM,42.1,26.1,53,29.77,10.0,South,15.0,24.2,N/A,,Mostly Cloudy,170,2013-02-19 05:53:00
1:53 AM,42.1,26.1,53,29.75,10.0,South,15.0,21.9,N/A,,Overcast,180,2013-02-19 06:53:00
2:53 AM,41.0,33.1,73,29.75,5.0,South,17.3,29.9,0.06,Rain,Rain,190,2013-02-19 07:53:00
3:22 AM,39.2,33.8,81,29.70,10.0,South,13.8,-,0.03,Rain,Light Rain,170,2013-02-19 08:22:00
3:53 AM,39.9,34.0,79,29.70,7.0,South,18.4,31.1,0.05,Rain,Light Rain,180,2013-02-19 08:53:00
4:12 AM,39.2,33.8,81,29.67,10.0,South,19.6,29.9,0.01,Rain,Light Rain,190,2013-02-19 09:12:00
4:29 AM,39.2,33.8,81,29.65,10.0,South,17.3,26.5,0.02,Rain,Light Rain,170,2013-02-19 09:29:00
4:53 AM,39.0,34.0,82,29.65,10.0,South,18.4,24.2,0.02,,Overcast,170,2013-02-19 09:53:00
5:35 AM,39.2,33.8,81,29.63,8.0,South,20.7,31.1,0.01,Rain,Light Rain,180,2013-02-19 10:35:00
5:53 AM,39.0,34.0,82,29.64,10.0,South,19.6,28.8,0.03,Rain,Light Rain,180,2013-02-19 10:53:00
6:53 AM,39.0,34.0,82,29.62,10.0,South,19.6,26.5,0.01,,Overcast,190,2013-02-19 11:53:00
7:53 AM,39.9,34.0,79,29.61,9.0,South,19.6,32.2,0.00,,Overcast,190,2013-02-19 12:53:00
8:53 AM,39.9,35.1,83,29.61,8.0,SSW,12.7,24.2,0.00,Rain,Light Rain,200,2013-02-19 13:53:00
9:28 AM,37.4,33.8,87,29.61,5.0,WNW,16.1,23.0,0.02,Rain,Light Rain,290,2013-02-19 14:28:00
9:37 AM,35.6,30.2,81,29.61,2.5,WNW,10.4,-,0.04,Rain,Rain,290,2013-02-19 14:37:00
9:41 AM,35.6,30.2,81,29.61,3.0,West,12.7,-,0.04,Rain,Light Rain,280,2013-02-19 14:41:00
9:53 AM,35.1,30.9,85,29.63,4.0,West,12.7,-,0.05,Rain,Light Rain,270,2013-02-19 14:53:00
10:48 AM,35.6,30.2,81,29.63,10.0,WSW,19.6,-,0.01,,Overcast,250,2013-02-19 15:48:00
10:53 AM,35.1,28.9,78,29.65,10.0,West,17.3,27.6,0.01,,Overcast,270,2013-02-19 15:53:00
11:33 AM,33.8,28.4,81,29.65,9.0,West,20.7,27.6,N/A,,Overcast,270,2013-02-19 16:33:00
11:53 AM,33.1,27.0,78,29.68,10.0,West,16.1,23.0,N/A,,Overcast,280,2013-02-19 16:53:00
12:14 PM,32.0,24.8,75,29.66,10.0,West,18.4,27.6,N/A,,Overcast,270,2013-02-19 17:14:00
1:15 PM,30.2,23.0,75,29.67,10.0,West,21.9,32.2,N/A,,Overcast,260,2013-02-19 18:15:00
2:31 PM,30.2,19.4,64,29.69,10.0,WSW,18.4,25.3,N/A,,Overcast,240,2013-02-19 19:31:00
2:53 PM,30.0,19.9,66,29.71,9.0,WSW,16.1,24.2,0.00,Snow,Light Snow,240,2013-02-19 19:53:00
3:53 PM,28.0,19.0,69,29.75,4.0,WSW,19.6,38.0,0.00,Snow,Light Snow,250,2013-02-19 20:53:00
4:01 PM,28.4,19.4,69,29.73,8.0,WSW,21.9,28.8,0.00,Snow,Light Snow,250,2013-02-19 21:01:00
4:49 PM,26.6,17.6,69,29.75,2.0,West,15.0,-,0.00,Snow,Light Snow,260,2013-02-19 21:49:00
4:53 PM,27.0,19.0,72,29.78,1.8,West,15.0,23.0,0.00,Snow,Light Snow,260,2013-02-19 21:53:00
5:08 PM,26.6,19.4,74,29.77,1.0,WSW,21.9,27.6,0.00,Snow,Light Snow,250,2013-02-19 22:08:00
5:14 PM,26.6,17.6,69,29.77,2.0,West,19.6,27.6,0.00,Snow,Light Snow,260,2013-02-19 22:14:00
5:31 PM,24.8,17.6,74,29.78,1.0,WSW,15.0,26.5,0.00,Snow,Light Snow,250,2013-02-19 22:31:00
5:39 PM,24.8,19.4,80,29.79,0.8,West,16.1,-,0.00,Snow,Light Snow,260,2013-02-19 22:39:00
5:47 PM,24.8,17.6,74,29.79,1.2,West,21.9,27.6,0.00,Snow,Light Snow,260,2013-02-19 22:47:00
5:53 PM,24.1,18.0,77,29.83,1.2,West,18.4,27.6,0.00,Snow,Light Snow,260,2013-02-19 22:53:00
6:28 PM,24.8,17.6,74,29.82,3.0,WSW,11.5,19.6,0.00,Snow,Light Snow,250,2013-02-19 23:28:00
7:35 PM,21.2,17.6,86,29.85,0.8,West,16.1,25.3,0.01,Snow,Light Snow,270,2013-02-20 00:35:00
7:53 PM,21.9,17.1,82,29.88,1.0,West,16.1,19.6,0.01,Snow,Light Snow,270,2013-02-20 00:53:00
8:07 PM,21.2,15.8,80,29.86,1.5,West,20.7,31.1,0.00,Snow,Light Snow,260,2013-02-20 01:07:00
8:22 PM,21.2,15.8,80,29.86,2.5,West,21.9,28.8,0.00,Snow,Light Snow,270,2013-02-20 01:22:00
8:45 PM,21.2,14.0,74,29.87,3.0,WSW,16.1,27.6,0.00,Snow,Light Snow,250,2013-02-20 01:45:00
8:51 PM,21.2,12.2,68,29.87,2.0,WSW,17.3,-,0.00,Snow,Light Snow,250,2013-02-20 01:51:00
8:53 PM,21.0,12.9,71,29.90,1.8,WSW,17.3,-,0.00,Snow,Light Snow,250,2013-02-20 01:53:00
9:17 PM,19.4,14.0,80,29.88,1.2,WSW,15.0,23.0,0.00,Snow,Light Snow,250,2013-02-20 02:17:00
9:29 PM,19.4,14.0,80,29.88,2.0,WSW,16.1,23.0,0.00,Snow,Light Snow,250,2013-02-20 02:29:00
9:53 PM,19.0,14.0,81,29.91,1.2,WSW,12.7,-,0.00,Snow,Light Snow,240,2013-02-20 02:53:00
9:57 PM,19.4,14.0,80,29.88,1.0,WSW,15.0,-,0.00,Snow,Light Snow,240,2013-02-20 02:57:00
10:05 PM,19.4,14.0,80,29.88,1.2,WSW,13.8,-,0.00,Snow,Light Snow,240,2013-02-20 03:05:00
10:21 PM,19.4,14.0,80,29.89,2.5,West,11.5,-,0.00,Snow,Light Snow,260,2013-02-20 03:21:00
10:34 PM,19.4,14.0,80,29.89,1.5,West,13.8,-,0.00,Snow,Light Snow,260,2013-02-20 03:34:00
10:45 PM,19.4,14.0,80,29.89,2.5,West,12.7,20.7,0.00,Snow,Light Snow,260,2013-02-20 03:45:00
10:53 PM,19.0,14.0,81,29.92,2.0,WSW,13.8,-,0.00,Snow,Light Snow,250,2013-02-20 03:53:00
11:00 PM,19.4,12.2,74,29.89,3.0,West,17.3,24.2,0.00,Snow,Light Snow,260,2013-02-20 04:00:00
11:42 PM,19.4,10.4,68,29.89,4.0,West,21.9,26.5,0.00,Snow,Light Snow,260,2013-02-20 04:42:00
11:53 PM,19.0,10.9,71,29.93,4.0,West,16.1,27.6,0.00,Snow,Light Snow,260,2013-02-20 04:53:00